Location: Newark
(34.0635°N, 86.7609°W)
Time: 04:43:43
(UTC+00:00)

N. Korean satellite - Pass Details

Date: 19 December 2019
Orbit: 454 x 508 km, 97.2° (Epoch: 20 January)

Event Time Altitude Azimuth Distance (km) Brightness Sun altitude
Rises 10:38:43 0° 35° (NE) 2,488 10.5 -25.9°
Reaches altitude 10° 10:41:37 10° 62° (ENE) 1,600 9.8 -25.3°
Maximum altitude 10:43:24 14° 94° (E) 1,389 9.8 -24.9°
Drops below altitude 10° 10:45:10 10° 125° (SE) 1,588 10.1 -24.5°
Sets 10:48:02 0° 153° (SSE) 2,452 10.7 -24.0°
